Year,Month,Day,Hour,Minute,Value (Times are PST for temperature in C)
2015,06,26,02,47,17.30
2015,06,26,02,48,17.30
2015,06,26,02,49,17.30
2015,06,26,02,50,17.30
2015,06,26,02,51,17.30
2015,06,26,02,52,17.30
2015,06,26,02,53,17.30
2015,06,26,02,54,17.30
2015,06,26,02,55,17.30
2015,06,26,02,56,17.30
2015,06,26,02,57,17.30
2015,06,26,02,58,17.30
2015,06,26,02,59,17.30
2015,06,26,03,00,17.30
2015,06,26,03,01,17.30
2015,06,26,03,02,17.30
2015,06,26,03,03,17.30
2015,06,26,03,04,17.30
2015,06,26,03,05,17.20
2015,06,26,03,06,17.20
2015,06,26,03,07,17.20
2015,06,26,03,08,17.20
2015,06,26,03,09,17.20
2015,06,26,03,10,17.20
2015,06,26,03,11,17.10
2015,06,26,03,12,17.10
2015,06,26,03,13,17.10
2015,06,26,03,14,17.10
2015,06,26,03,15,17.00
2015,06,26,03,16,17.00
2015,06,26,03,17,17.00
2015,06,26,03,18,17.00
2015,06,26,03,19,17.00
2015,06,26,03,20,17.00
2015,06,26,03,21,16.90
2015,06,26,03,22,16.90
2015,06,26,03,23,16.90
2015,06,26,03,24,16.90
2015,06,26,03,25,16.90
2015,06,26,03,26,16.90
2015,06,26,03,27,16.90
2015,06,26,03,28,16.90
2015,06,26,03,29,16.90
2015,06,26,03,30,16.90
2015,06,26,03,31,16.90
2015,06,26,03,32,16.90
2015,06,26,03,33,16.90
2015,06,26,03,34,16.90
2015,06,26,03,35,16.90
2015,06,26,03,36,16.90
2015,06,26,03,37,16.90
2015,06,26,03,38,16.90
2015,06,26,03,39,16.90
2015,06,26,03,40,16.90
2015,06,26,03,41,16.90
2015,06,26,03,42,16.90
2015,06,26,03,43,16.90
2015,06,26,03,44,16.90
2015,06,26,03,45,16.90
2015,06,26,03,46,16.80
2015,06,26,03,47,16.80
2015,06,26,03,48,16.80
2015,06,26,03,49,16.80
2015,06,26,03,50,16.80
2015,06,26,03,51,16.70
2015,06,26,03,52,16.70
2015,06,26,03,53,16.70
2015,06,26,03,54,16.70
2015,06,26,03,55,16.70
2015,06,26,03,56,16.70
2015,06,26,03,57,16.70
2015,06,26,03,58,16.70
2015,06,26,03,59,16.70
2015,06,26,04,00,16.70
2015,06,26,04,01,16.70
2015,06,26,04,02,16.70
2015,06,26,04,03,16.70
2015,06,26,04,04,16.70
2015,06,26,04,05,16.70
2015,06,26,04,06,16.70
2015,06,26,04,07,16.70
2015,06,26,04,08,16.70
2015,06,26,04,09,16.70
2015,06,26,04,10,16.70
2015,06,26,04,11,16.70
2015,06,26,04,12,16.70
2015,06,26,04,13,16.70
2015,06,26,04,14,16.60
2015,06,26,04,15,16.60
2015,06,26,04,16,16.60
2015,06,26,04,17,16.60
2015,06,26,04,18,16.60
2015,06,26,04,19,16.60
2015,06,26,04,20,16.60
2015,06,26,04,21,16.60
2015,06,26,04,22,16.50
2015,06,26,04,23,16.40
2015,06,26,04,24,16.40
2015,06,26,04,25,16.40
2015,06,26,04,26,16.40
2015,06,26,04,27,16.40
2015,06,26,04,28,16.40
2015,06,26,04,29,16.40
2015,06,26,04,30,16.40
2015,06,26,04,31,16.40
2015,06,26,04,32,16.40
2015,06,26,04,33,16.40
2015,06,26,04,34,16.40
2015,06,26,04,35,16.40
2015,06,26,04,36,16.40
2015,06,26,04,37,16.40
2015,06,26,04,38,16.40
2015,06,26,04,39,16.30
2015,06,26,04,40,16.30
2015,06,26,04,41,16.30
2015,06,26,04,42,16.30
2015,06,26,04,43,16.30
2015,06,26,04,44,16.30
2015,06,26,04,45,16.30
2015,06,26,04,46,16.30
2015,06,26,04,47,16.30
2015,06,26,04,48,16.30
2015,06,26,04,49,16.20
2015,06,26,04,50,16.20
2015,06,26,04,51,16.20
2015,06,26,04,52,16.20
2015,06,26,04,53,16.20
2015,06,26,04,54,16.20
2015,06,26,04,55,16.20
2015,06,26,04,56,16.20
2015,06,26,04,57,16.20
2015,06,26,04,58,16.20
2015,06,26,04,59,16.20
2015,06,26,05,00,16.20
2015,06,26,05,01,16.10
2015,06,26,05,02,16.10
2015,06,26,05,03,16.10
2015,06,26,05,04,16.10
2015,06,26,05,05,16.10
2015,06,26,05,06,16.10
2015,06,26,05,07,16.10
2015,06,26,05,08,16.10
2015,06,26,05,09,16.20
2015,06,26,05,10,16.20
2015,06,26,05,11,16.20
2015,06,26,05,12,16.20
2015,06,26,05,13,16.10
2015,06,26,05,14,16.10
2015,06,26,05,15,16.10
2015,06,26,05,16,16.10
2015,06,26,05,17,16.10
2015,06,26,05,18,16.10
2015,06,26,05,19,16.10
2015,06,26,05,20,16.10
2015,06,26,05,21,16.10
2015,06,26,05,22,16.10
2015,06,26,05,23,16.10
2015,06,26,05,24,16.10
2015,06,26,05,25,16.10
2015,06,26,05,26,16.10
2015,06,26,05,27,16.10
2015,06,26,05,28,16.10
2015,06,26,05,29,16.10
2015,06,26,05,30,16.10
2015,06,26,05,31,16.10
2015,06,26,05,32,16.10
2015,06,26,05,33,16.10
2015,06,26,05,34,16.10
2015,06,26,05,35,16.10
2015,06,26,05,36,16.10
2015,06,26,05,37,16.10
2015,06,26,05,38,16.10
2015,06,26,05,39,16.10
2015,06,26,05,40,16.10
2015,06,26,05,41,16.10
2015,06,26,05,42,16.10
2015,06,26,05,43,16.10
2015,06,26,05,44,16.10
2015,06,26,05,45,16.10
2015,06,26,05,46,16.10
2015,06,26,05,47,16.10
2015,06,26,05,48,16.10
2015,06,26,05,49,16.10
2015,06,26,05,50,16.10
2015,06,26,05,51,16.10
2015,06,26,05,52,16.10
2015,06,26,05,53,16.10
2015,06,26,05,54,16.10
2015,06,26,05,55,16.10
2015,06,26,05,56,16.10
2015,06,26,05,57,16.10
2015,06,26,05,58,16.10
2015,06,26,05,59,16.10
2015,06,26,06,00,16.10
2015,06,26,06,01,16.10
2015,06,26,06,02,16.10
2015,06,26,06,03,16.10
2015,06,26,06,04,16.10
2015,06,26,06,05,16.10
2015,06,26,06,06,16.10
2015,06,26,06,07,16.10
2015,06,26,06,08,16.10
2015,06,26,06,09,16.10
2015,06,26,06,10,16.10
2015,06,26,06,11,16.10
2015,06,26,06,12,16.10
2015,06,26,06,13,16.10
2015,06,26,06,14,16.10
2015,06,26,06,15,16.20
2015,06,26,06,16,16.20
2015,06,26,06,17,16.30
2015,06,26,06,18,16.30
2015,06,26,06,19,16.40
2015,06,26,06,20,16.40
2015,06,26,06,21,16.40
2015,06,26,06,22,16.50
2015,06,26,06,23,16.60
2015,06,26,06,24,16.70
2015,06,26,06,25,16.70
2015,06,26,06,26,16.80
2015,06,26,06,27,16.90
2015,06,26,06,28,16.90
2015,06,26,06,29,16.90
2015,06,26,06,30,17.00
2015,06,26,06,31,17.00
2015,06,26,06,32,17.00
2015,06,26,06,33,17.10
2015,06,26,06,34,17.10
2015,06,26,06,35,17.10
2015,06,26,06,36,17.20
2015,06,26,06,37,17.20
2015,06,26,06,38,17.30
2015,06,26,06,39,17.30
2015,06,26,06,40,17.30
2015,06,26,06,41,17.30
2015,06,26,06,42,17.30
2015,06,26,06,43,17.30
2015,06,26,06,44,17.40
2015,06,26,06,45,17.40
2015,06,26,06,46,17.50
2015,06,26,06,47,17.50
2015,06,26,06,48,17.60
2015,06,26,06,49,17.60
2015,06,26,06,50,17.70
2015,06,26,06,51,17.80
2015,06,26,06,52,17.90
2015,06,26,06,53,17.90
2015,06,26,06,54,17.90
2015,06,26,06,55,17.90
2015,06,26,06,56,17.90
2015,06,26,06,57,17.90
2015,06,26,06,58,17.90
2015,06,26,06,59,17.90
2015,06,26,07,00,17.90
2015,06,26,07,01,17.90
2015,06,26,07,02,17.90
2015,06,26,07,03,18.00
2015,06,26,07,04,18.10
2015,06,26,07,05,18.10
2015,06,26,07,06,18.10
2015,06,26,07,07,18.20
2015,06,26,07,08,18.20
2015,06,26,07,09,18.20
2015,06,26,07,10,18.20
2015,06,26,07,11,18.20
2015,06,26,07,12,18.30
2015,06,26,07,13,18.30
2015,06,26,07,14,18.40
2015,06,26,07,15,18.40
2015,06,26,07,16,18.50
2015,06,26,07,17,18.50
2015,06,26,07,18,18.60
2015,06,26,07,19,18.60
2015,06,26,07,20,18.70
2015,06,26,07,21,18.70
2015,06,26,07,22,18.80
2015,06,26,07,23,18.90
2015,06,26,07,24,18.90
2015,06,26,07,25,18.90
2015,06,26,07,26,19.00
2015,06,26,07,27,19.10
2015,06,26,07,28,19.10
2015,06,26,07,29,19.10
2015,06,26,07,30,19.10
2015,06,26,07,31,19.10
2015,06,26,07,32,19.20
2015,06,26,07,33,19.30
2015,06,26,07,34,19.40
2015,06,26,07,35,19.40
2015,06,26,07,36,19.50
2015,06,26,07,37,19.60
2015,06,26,07,38,19.60
2015,06,26,07,39,19.60
2015,06,26,07,40,19.60
2015,06,26,07,41,19.60
2015,06,26,07,42,19.70
2015,06,26,07,43,19.70
2015,06,26,07,44,19.70
2015,06,26,07,45,19.70
2015,06,26,07,46,19.70
2015,06,26,07,47,19.70
2015,06,26,07,48,19.70
2015,06,26,07,49,19.70
2015,06,26,07,50,19.70
2015,06,26,07,51,19.70
2015,06,26,07,52,19.70
2015,06,26,07,53,19.80
2015,06,26,07,54,19.80
2015,06,26,07,55,19.90
2015,06,26,07,56,19.90
2015,06,26,07,57,20.00
2015,06,26,07,58,20.10
2015,06,26,07,59,20.10
2015,06,26,08,00,20.20
2015,06,26,08,01,20.20
2015,06,26,08,02,20.30
2015,06,26,08,03,20.40
2015,06,26,08,04,20.40
2015,06,26,08,05,20.40
2015,06,26,08,06,20.50
2015,06,26,08,07,20.50
2015,06,26,08,08,20.60
2015,06,26,08,09,20.60
2015,06,26,08,10,20.70
2015,06,26,08,11,20.80
2015,06,26,08,12,20.80
2015,06,26,08,13,21.00
2015,06,26,08,14,21.00
2015,06,26,08,15,21.20
2015,06,26,08,16,21.30
2015,06,26,08,17,21.30
2015,06,26,08,18,21.30
2015,06,26,08,19,21.40
2015,06,26,08,20,21.40
2015,06,26,08,21,21.50
2015,06,26,08,22,21.60
2015,06,26,08,23,21.60
2015,06,26,08,24,21.50
2015,06,26,08,25,21.40
2015,06,26,08,26,21.40
2015,06,26,08,27,21.40
2015,06,26,08,28,21.30
2015,06,26,08,29,21.30
2015,06,26,08,30,21.30
2015,06,26,08,31,21.30
2015,06,26,08,32,21.30
2015,06,26,08,33,21.20
2015,06,26,08,34,21.20
2015,06,26,08,35,21.20
2015,06,26,08,36,21.20
2015,06,26,08,37,21.20
2015,06,26,08,38,21.20
2015,06,26,08,39,21.20
2015,06,26,08,40,21.30
2015,06,26,08,41,21.30
2015,06,26,08,42,21.30
2015,06,26,08,43,21.30
2015,06,26,08,44,21.30
2015,06,26,08,45,21.30
2015,06,26,08,46,21.30
2015,06,26,08,47,21.30
2015,06,26,08,48,21.30
2015,06,26,08,49,21.30
2015,06,26,08,50,21.30
2015,06,26,08,51,21.30
2015,06,26,08,52,21.30
2015,06,26,08,53,21.40
2015,06,26,08,54,21.40
2015,06,26,08,55,21.40
2015,06,26,08,56,21.50
2015,06,26,08,57,21.60
2015,06,26,08,58,21.60
2015,06,26,08,59,21.60
2015,06,26,09,00,21.60
2015,06,26,09,01,21.50
2015,06,26,09,02,21.40
2015,06,26,09,03,21.40
2015,06,26,09,04,21.40
2015,06,26,09,05,21.40
2015,06,26,09,06,21.40
2015,06,26,09,07,21.40
2015,06,26,09,08,21.30
2015,06,26,09,09,21.30
2015,06,26,09,10,21.30
2015,06,26,09,11,21.30
2015,06,26,09,12,21.20
2015,06,26,09,13,21.20
2015,06,26,09,14,21.20
2015,06,26,09,15,21.10
2015,06,26,09,16,21.10
2015,06,26,09,17,21.10
2015,06,26,09,18,21.10
2015,06,26,09,19,21.10
2015,06,26,09,20,21.10
2015,06,26,09,21,21.10
2015,06,26,09,22,21.20
2015,06,26,09,23,21.10
2015,06,26,09,24,21.20
2015,06,26,09,25,21.20
2015,06,26,09,26,21.20
2015,06,26,09,27,21.20
2015,06,26,09,28,21.20
2015,06,26,09,29,21.20
2015,06,26,09,30,21.30
2015,06,26,09,31,21.30
2015,06,26,09,32,21.30
2015,06,26,09,33,21.30
2015,06,26,09,34,21.30
2015,06,26,09,35,21.30
2015,06,26,09,36,21.30
2015,06,26,09,37,21.30
2015,06,26,09,38,21.30
2015,06,26,09,39,21.30
2015,06,26,09,40,21.30
2015,06,26,09,41,21.30
2015,06,26,09,42,21.40
2015,06,26,09,43,21.50
2015,06,26,09,44,21.60
2015,06,26,09,45,21.60
2015,06,26,09,46,21.70
2015,06,26,09,47,21.70
2015,06,26,09,48,21.80
2015,06,26,09,49,21.90
2015,06,26,09,50,22.00
2015,06,26,09,51,22.00
2015,06,26,09,52,22.00
2015,06,26,09,53,22.00
2015,06,26,09,54,22.10
2015,06,26,09,55,22.20
2015,06,26,09,56,22.20
2015,06,26,09,57,22.30
2015,06,26,09,58,22.30
2015,06,26,09,59,22.20
2015,06,26,10,00,22.10
2015,06,26,10,01,22.10
2015,06,26,10,02,22.20
2015,06,26,10,03,22.30
2015,06,26,10,04,22.40
2015,06,26,10,05,22.30
2015,06,26,10,06,22.30
2015,06,26,10,07,22.30
2015,06,26,10,08,22.30
2015,06,26,10,09,22.30
2015,06,26,10,10,22.30
2015,06,26,10,11,22.30
2015,06,26,10,12,22.50
2015,06,26,10,13,22.60
2015,06,26,10,14,22.60
2015,06,26,10,15,22.60
2015,06,26,10,16,22.60
2015,06,26,10,17,22.70
2015,06,26,10,18,22.80
2015,06,26,10,19,22.90
2015,06,26,10,20,22.90
2015,06,26,10,21,22.90
2015,06,26,10,22,23.00
2015,06,26,10,23,23.10
2015,06,26,10,24,23.10
2015,06,26,10,25,23.10
2015,06,26,10,26,23.20
2015,06,26,10,27,23.20
2015,06,26,10,28,23.20
2015,06,26,10,29,23.20
2015,06,26,10,30,23.20
2015,06,26,10,31,23.20
2015,06,26,10,32,23.20
2015,06,26,10,33,23.20
2015,06,26,10,34,23.10
2015,06,26,10,35,23.10
2015,06,26,10,36,23.10
2015,06,26,10,37,23.20
2015,06,26,10,38,23.20
2015,06,26,10,39,23.20
2015,06,26,10,40,23.00
2015,06,26,10,41,22.90
2015,06,26,10,42,22.90
2015,06,26,10,43,23.10
2015,06,26,10,44,23.10
2015,06,26,10,45,23.00
2015,06,26,10,46,22.90
2015,06,26,10,47,23.00
2015,06,26,10,48,23.10
2015,06,26,10,49,23.10
2015,06,26,10,50,23.10
2015,06,26,10,51,23.20
2015,06,26,10,52,23.20
2015,06,26,10,53,23.30
2015,06,26,10,54,23.30
2015,06,26,10,55,23.50
2015,06,26,10,56,23.60
2015,06,26,10,57,23.70
2015,06,26,10,58,23.60
2015,06,26,10,59,23.60
2015,06,26,11,00,23.60
2015,06,26,11,01,23.60
2015,06,26,11,02,23.40
2015,06,26,11,03,23.30
2015,06,26,11,04,23.20
2015,06,26,11,05,23.20
2015,06,26,11,06,23.20
2015,06,26,11,07,23.00
2015,06,26,11,08,22.90
2015,06,26,11,09,22.90
2015,06,26,11,10,22.90
2015,06,26,11,11,22.90
2015,06,26,11,12,22.80
2015,06,26,11,13,22.70
2015,06,26,11,14,22.60
2015,06,26,11,15,22.60
2015,06,26,11,16,22.60
2015,06,26,11,17,22.50
2015,06,26,11,18,22.50
2015,06,26,11,19,22.40
2015,06,26,11,20,22.40
2015,06,26,11,21,22.40
2015,06,26,11,22,22.40
2015,06,26,11,23,22.40
2015,06,26,11,24,22.40
2015,06,26,11,25,22.30
2015,06,26,11,26,22.30
2015,06,26,11,27,22.40
2015,06,26,11,28,22.40
2015,06,26,11,29,22.30
2015,06,26,11,30,22.30
2015,06,26,11,31,22.40
2015,06,26,11,32,22.30
2015,06,26,11,33,22.30
2015,06,26,11,34,22.30
2015,06,26,11,35,22.40
2015,06,26,11,36,22.40
2015,06,26,11,37,22.50
2015,06,26,11,38,22.70
2015,06,26,11,39,22.80
2015,06,26,11,40,22.90
2015,06,26,11,41,22.90
2015,06,26,11,42,22.90
2015,06,26,11,43,22.90
2015,06,26,11,44,22.90
2015,06,26,11,45,22.90
2015,06,26,11,46,22.80
2015,06,26,11,47,22.80
2015,06,26,11,48,22.80
2015,06,26,11,49,22.80
2015,06,26,11,50,22.90
2015,06,26,11,51,22.90
2015,06,26,11,52,22.90
2015,06,26,11,53,23.00
2015,06,26,11,54,23.00
2015,06,26,11,55,22.90
2015,06,26,11,56,22.90
2015,06,26,11,57,23.00
2015,06,26,11,58,23.10
2015,06,26,11,59,23.10
2015,06,26,12,00,23.20
2015,06,26,12,01,23.30
2015,06,26,12,02,23.30
2015,06,26,12,03,23.40
2015,06,26,12,04,23.40
2015,06,26,12,05,23.40
2015,06,26,12,06,23.30
2015,06,26,12,07,23.40
2015,06,26,12,08,23.60
2015,06,26,12,09,23.60
2015,06,26,12,10,23.60
2015,06,26,12,11,23.60
2015,06,26,12,12,23.60
2015,06,26,12,13,23.60
2015,06,26,12,14,23.70
2015,06,26,12,15,23.60
2015,06,26,12,16,23.60
2015,06,26,12,17,23.70
2015,06,26,12,18,23.60
2015,06,26,12,19,23.50
2015,06,26,12,20,23.50
2015,06,26,12,21,23.60
2015,06,26,12,22,23.70
2015,06,26,12,23,23.70
2015,06,26,12,24,23.70
2015,06,26,12,25,23.70
2015,06,26,12,26,23.70
2015,06,26,12,27,23.70
2015,06,26,12,28,23.70
2015,06,26,12,29,23.80
2015,06,26,12,30,23.90
2015,06,26,12,31,24.00
2015,06,26,12,32,24.10
2015,06,26,12,33,24.10
2015,06,26,12,34,24.10
2015,06,26,12,35,24.10
2015,06,26,12,36,24.20
2015,06,26,12,37,24.20
2015,06,26,12,38,24.30
2015,06,26,12,39,24.40
2015,06,26,12,40,24.40
2015,06,26,12,41,24.20
2015,06,26,12,42,24.10
2015,06,26,12,43,24.00
2015,06,26,12,44,23.80
2015,06,26,12,45,23.70
2015,06,26,12,46,23.70
2015,06,26,12,47,23.70
2015,06,26,12,48,23.80
2015,06,26,12,49,23.80
2015,06,26,12,50,23.80
2015,06,26,12,51,23.80
2015,06,26,12,52,23.70
2015,06,26,12,53,23.60
2015,06,26,12,54,23.40
2015,06,26,12,55,23.30
2015,06,26,12,56,23.30
2015,06,26,12,57,23.30
2015,06,26,12,58,23.30
2015,06,26,12,59,23.30
2015,06,26,13,00,23.30
2015,06,26,13,01,23.30
2015,06,26,13,02,23.30
2015,06,26,13,03,23.30
2015,06,26,13,04,23.30
2015,06,26,13,05,23.30
2015,06,26,13,06,23.40
2015,06,26,13,07,23.70
2015,06,26,13,08,23.70
2015,06,26,13,09,23.70
2015,06,26,13,10,23.70
2015,06,26,13,11,23.70
2015,06,26,13,12,23.70
2015,06,26,13,13,23.80
2015,06,26,13,14,23.80
2015,06,26,13,15,23.80
2015,06,26,13,16,23.80
2015,06,26,13,17,23.80
2015,06,26,13,18,23.70
2015,06,26,13,19,23.60
2015,06,26,13,20,23.50
2015,06,26,13,21,23.40
2015,06,26,13,22,23.40
2015,06,26,13,23,23.40
2015,06,26,13,24,23.50
2015,06,26,13,25,23.60
2015,06,26,13,26,23.70
2015,06,26,13,27,23.70
2015,06,26,13,28,23.80
2015,06,26,13,29,23.80
2015,06,26,13,30,23.90
2015,06,26,13,31,23.90
2015,06,26,13,32,23.90
2015,06,26,13,33,23.90
2015,06,26,13,34,23.90
2015,06,26,13,35,23.90
2015,06,26,13,36,23.90
2015,06,26,13,37,24.00
2015,06,26,13,38,24.10
2015,06,26,13,39,24.10
2015,06,26,13,40,24.10
2015,06,26,13,41,24.10
2015,06,26,13,42,24.10
2015,06,26,13,43,24.20
2015,06,26,13,44,24.10
2015,06,26,13,45,24.10
2015,06,26,13,46,24.10
2015,06,26,13,47,24.10
2015,06,26,13,48,24.10
2015,06,26,13,49,24.10
2015,06,26,13,50,24.20
2015,06,26,13,51,24.20
2015,06,26,13,52,24.10
2015,06,26,13,53,24.10
2015,06,26,13,54,24.10
2015,06,26,13,55,24.00
2015,06,26,13,56,23.90
2015,06,26,13,57,23.80
2015,06,26,13,58,23.70
2015,06,26,13,59,23.70
2015,06,26,14,00,23.70
2015,06,26,14,01,23.70
2015,06,26,14,02,23.90
2015,06,26,14,03,23.90
2015,06,26,14,04,23.90
2015,06,26,14,05,24.00
2015,06,26,14,06,24.10
2015,06,26,14,07,24.10
2015,06,26,14,08,24.10
2015,06,26,14,09,24.10
2015,06,26,14,10,24.20
2015,06,26,14,11,24.30
2015,06,26,14,12,24.50
2015,06,26,14,13,24.60
2015,06,26,14,14,24.60
2015,06,26,14,15,24.60
2015,06,26,14,16,24.70
2015,06,26,14,17,24.80
2015,06,26,14,18,24.80
2015,06,26,14,19,24.80
2015,06,26,14,20,24.90
2015,06,26,14,21,25.00
2015,06,26,14,22,25.00
2015,06,26,14,23,25.10
2015,06,26,14,24,25.10
2015,06,26,14,25,25.10
2015,06,26,14,26,25.00
2015,06,26,14,27,25.00
2015,06,26,14,28,24.90
2015,06,26,14,29,24.90
2015,06,26,14,30,25.00
2015,06,26,14,31,25.10
2015,06,26,14,32,25.20
2015,06,26,14,33,25.30
2015,06,26,14,34,25.50
2015,06,26,14,35,25.60
2015,06,26,14,36,25.50
2015,06,26,14,37,25.50
2015,06,26,14,38,25.40
2015,06,26,14,39,25.40
2015,06,26,14,40,25.40
2015,06,26,14,41,25.40
2015,06,26,14,42,25.30
2015,06,26,14,43,25.30
2015,06,26,14,44,25.30
2015,06,26,14,45,25.20
2015,06,26,14,46,25.20
2015,06,26,14,47,25.20
2015,06,26,14,48,25.20
2015,06,26,14,49,25.40
2015,06,26,14,50,25.40
2015,06,26,14,51,25.40
2015,06,26,14,52,25.50
2015,06,26,14,53,25.50
2015,06,26,14,54,25.70
2015,06,26,14,55,25.70
2015,06,26,14,56,25.80
2015,06,26,14,57,25.70
2015,06,26,14,58,25.70
2015,06,26,14,59,25.60
2015,06,26,15,00,25.60
2015,06,26,15,01,25.50
2015,06,26,15,02,25.40
2015,06,26,15,03,25.40
2015,06,26,15,04,25.30
2015,06,26,15,05,25.30
2015,06,26,15,06,25.40
2015,06,26,15,07,25.40
2015,06,26,15,08,25.40
2015,06,26,15,09,25.40
2015,06,26,15,10,25.40
2015,06,26,15,11,25.20
2015,06,26,15,12,25.20
2015,06,26,15,13,25.20
2015,06,26,15,14,25.20
2015,06,26,15,15,25.10
2015,06,26,15,16,25.10
2015,06,26,15,17,25.10
2015,06,26,15,18,25.10
2015,06,26,15,19,25.10
2015,06,26,15,20,25.00
2015,06,26,15,21,25.00
2015,06,26,15,22,25.00
2015,06,26,15,23,24.90
2015,06,26,15,24,24.80
2015,06,26,15,25,24.70
2015,06,26,15,26,24.70
2015,06,26,15,27,24.70
2015,06,26,15,28,24.60
2015,06,26,15,29,24.50
2015,06,26,15,30,24.60
2015,06,26,15,31,24.60
2015,06,26,15,32,24.70
2015,06,26,15,33,24.80
2015,06,26,15,34,24.90
2015,06,26,15,35,24.90
2015,06,26,15,36,24.90
2015,06,26,15,37,24.80
2015,06,26,15,38,24.70
2015,06,26,15,39,24.70
2015,06,26,15,40,24.80
2015,06,26,15,41,24.90
2015,06,26,15,42,25.00
2015,06,26,15,43,25.00
2015,06,26,15,44,25.00
2015,06,26,15,45,24.90
2015,06,26,15,46,24.90
2015,06,26,15,47,24.90
2015,06,26,15,48,24.90
2015,06,26,15,49,25.00
2015,06,26,15,50,25.10
2015,06,26,15,51,25.00
2015,06,26,15,52,24.90
2015,06,26,15,53,24.80
2015,06,26,15,54,24.70
2015,06,26,15,55,24.70
2015,06,26,15,56,24.70
2015,06,26,15,57,24.60
2015,06,26,15,58,24.60
2015,06,26,15,59,24.70
2015,06,26,16,00,24.70
2015,06,26,16,01,24.80
2015,06,26,16,02,24.80
2015,06,26,16,03,24.80
2015,06,26,16,04,24.80
2015,06,26,16,05,24.80
2015,06,26,16,06,24.80
2015,06,26,16,07,24.80
2015,06,26,16,08,24.80
2015,06,26,16,09,24.90
2015,06,26,16,10,25.00
2015,06,26,16,11,25.00
2015,06,26,16,12,25.20
2015,06,26,16,13,25.20
2015,06,26,16,14,25.30
2015,06,26,16,15,25.30
2015,06,26,16,16,25.40
2015,06,26,16,17,25.50
2015,06,26,16,18,25.50
2015,06,26,16,19,25.60
2015,06,26,16,20,25.60
2015,06,26,16,21,25.60
2015,06,26,16,22,25.60
2015,06,26,16,23,25.60
2015,06,26,16,24,25.70
2015,06,26,16,25,25.80
2015,06,26,16,26,25.90
2015,06,26,16,27,25.80
2015,06,26,16,28,25.90
2015,06,26,16,29,25.90
2015,06,26,16,30,25.90
2015,06,26,16,31,26.00
2015,06,26,16,32,26.00
2015,06,26,16,33,26.00
2015,06,26,16,34,26.00
2015,06,26,16,35,26.10
2015,06,26,16,36,26.10
2015,06,26,16,37,26.00
2015,06,26,16,38,26.00
2015,06,26,16,39,26.00
2015,06,26,16,40,26.20
2015,06,26,16,41,26.20
2015,06,26,16,42,26.20
2015,06,26,16,43,26.20
2015,06,26,16,44,26.10
2015,06,26,16,45,26.00
2015,06,26,16,46,26.00
2015,06,26,16,47,26.00
2015,06,26,16,48,26.10
2015,06,26,16,49,26.30
2015,06,26,16,50,26.50
2015,06,26,16,51,26.60
2015,06,26,16,52,26.70
2015,06,26,16,53,26.70
2015,06,26,16,54,26.70
2015,06,26,16,55,26.70
2015,06,26,16,56,26.70
2015,06,26,16,57,26.60
2015,06,26,16,58,26.60
2015,06,26,16,59,26.50
2015,06,26,17,00,26.50
2015,06,26,17,01,26.60
2015,06,26,17,02,26.60
2015,06,26,17,03,26.60
2015,06,26,17,04,26.60
2015,06,26,17,05,26.60
2015,06,26,17,06,26.70
2015,06,26,17,07,26.70
2015,06,26,17,08,26.70
2015,06,26,17,09,26.70
2015,06,26,17,10,26.70
2015,06,26,17,11,26.60
2015,06,26,17,12,26.60
2015,06,26,17,13,26.70
2015,06,26,17,14,26.70
2015,06,26,17,15,26.70
2015,06,26,17,16,26.80
2015,06,26,17,17,26.80
2015,06,26,17,18,26.70
2015,06,26,17,19,26.80
2015,06,26,17,20,26.90
2015,06,26,17,21,27.10
2015,06,26,17,22,27.00
2015,06,26,17,23,26.90
2015,06,26,17,24,26.90
2015,06,26,17,25,26.80
2015,06,26,17,26,26.80
2015,06,26,17,27,26.70
2015,06,26,17,28,26.60
2015,06,26,17,29,26.60
2015,06,26,17,30,26.60
2015,06,26,17,31,26.50
2015,06,26,17,32,26.40
2015,06,26,17,33,26.50
2015,06,26,17,34,26.60
2015,06,26,17,35,26.70
2015,06,26,17,36,26.80
2015,06,26,17,37,26.90
2015,06,26,17,38,27.00
2015,06,26,17,39,27.10
2015,06,26,17,40,27.10
2015,06,26,17,41,27.10
2015,06,26,17,42,27.00
2015,06,26,17,43,26.90
2015,06,26,17,44,26.80
2015,06,26,17,45,26.60
2015,06,26,17,46,26.50
2015,06,26,17,47,26.30
2015,06,26,17,48,26.10
2015,06,26,17,49,26.00
2015,06,26,17,50,26.00
2015,06,26,17,51,26.10
2015,06,26,17,52,26.10
2015,06,26,17,53,26.10
2015,06,26,17,54,26.20
2015,06,26,17,55,26.20
2015,06,26,17,56,26.30
2015,06,26,17,57,26.20
2015,06,26,17,58,26.30
2015,06,26,17,59,26.30
2015,06,26,18,00,26.30
2015,06,26,18,01,26.30
2015,06,26,18,02,26.30
2015,06,26,18,03,26.20
2015,06,26,18,04,26.20
2015,06,26,18,05,26.20
2015,06,26,18,06,26.20
2015,06,26,18,07,26.10
2015,06,26,18,08,26.10
2015,06,26,18,09,26.10
2015,06,26,18,10,26.10
2015,06,26,18,11,26.10
2015,06,26,18,12,26.10
2015,06,26,18,13,26.10
2015,06,26,18,14,26.20
2015,06,26,18,15,26.20
2015,06,26,18,16,26.30
2015,06,26,18,17,26.30
2015,06,26,18,18,26.30
2015,06,26,18,19,26.30
2015,06,26,18,20,26.30
2015,06,26,18,21,26.40
2015,06,26,18,22,26.40
2015,06,26,18,23,26.30
2015,06,26,18,24,26.30
2015,06,26,18,25,26.20
2015,06,26,18,26,26.20
2015,06,26,18,27,26.10
2015,06,26,18,28,26.10
2015,06,26,18,29,26.00
2015,06,26,18,30,26.00
2015,06,26,18,31,26.00
2015,06,26,18,32,26.00
2015,06,26,18,33,26.00
2015,06,26,18,34,26.00
2015,06,26,18,35,26.10
2015,06,26,18,36,26.20
2015,06,26,18,37,26.30
2015,06,26,18,38,26.40
2015,06,26,18,39,26.40
2015,06,26,18,40,26.40
2015,06,26,18,41,26.40
2015,06,26,18,42,26.50
2015,06,26,18,43,26.60
2015,06,26,18,44,26.60
2015,06,26,18,45,26.60
2015,06,26,18,46,26.50
2015,06,26,18,47,26.40
2015,06,26,18,48,26.30
2015,06,26,18,49,26.20
2015,06,26,18,50,26.10
2015,06,26,18,51,26.00
2015,06,26,18,52,25.90
2015,06,26,18,53,25.80
2015,06,26,18,54,25.70
2015,06,26,18,55,25.70
2015,06,26,18,56,25.70
2015,06,26,18,57,25.70
2015,06,26,18,58,25.70
2015,06,26,18,59,25.80
2015,06,26,19,00,25.80
2015,06,26,19,01,25.80
2015,06,26,19,02,25.70
2015,06,26,19,03,25.70
2015,06,26,19,04,25.70
2015,06,26,19,05,25.70
2015,06,26,19,06,25.70
2015,06,26,19,07,25.70
2015,06,26,19,08,25.80
2015,06,26,19,09,25.80
2015,06,26,19,10,25.90
2015,06,26,19,11,26.00
2015,06,26,19,12,26.00
2015,06,26,19,13,26.00
2015,06,26,19,14,26.00
2015,06,26,19,15,26.00
2015,06,26,19,16,26.00
2015,06,26,19,17,26.00
2015,06,26,19,18,26.10
2015,06,26,19,19,26.10
2015,06,26,19,20,26.10
2015,06,26,19,21,26.20
2015,06,26,19,22,26.30
2015,06,26,19,23,26.30
2015,06,26,19,24,26.40
2015,06,26,19,25,26.40
2015,06,26,19,26,26.50
2015,06,26,19,27,26.60
2015,06,26,19,28,26.60
2015,06,26,19,29,26.60
2015,06,26,19,30,26.60
2015,06,26,19,31,26.60
2015,06,26,19,32,26.60
2015,06,26,19,33,26.60
2015,06,26,19,34,26.60
2015,06,26,19,35,26.60
2015,06,26,19,36,26.70
2015,06,26,19,37,26.70
2015,06,26,19,38,26.70
2015,06,26,19,39,26.70
2015,06,26,19,40,26.60
2015,06,26,19,41,26.60
2015,06,26,19,42,26.60
2015,06,26,19,43,26.60
2015,06,26,19,44,26.60
2015,06,26,19,45,26.60
2015,06,26,19,46,26.60
2015,06,26,19,47,26.60
2015,06,26,19,48,26.70
2015,06,26,19,49,26.60
2015,06,26,19,50,26.60
2015,06,26,19,51,26.60
2015,06,26,19,52,26.60
2015,06,26,19,53,26.60
2015,06,26,19,54,26.60
2015,06,26,19,55,26.60
2015,06,26,19,56,26.50
2015,06,26,19,57,26.40
2015,06,26,19,58,26.40
2015,06,26,19,59,26.40
2015,06,26,20,00,26.40
2015,06,26,20,01,26.40
2015,06,26,20,02,26.40
2015,06,26,20,03,26.30
2015,06,26,20,04,26.30
2015,06,26,20,05,26.30
2015,06,26,20,06,26.20